Home > Weather > Shenyang > Past weeks

Flag for China Past Weather in Shenyang, Liaoning, China — Yesterday and Last 2 Weeks

Now
81 °F

Sunny.


Feels Like: 81 °F
Forecast: 57 / 68 °F
Wind: 15 mph from North

Location: Shenyang / Taoxian

Current Time: Aug 29, 2016 at 11:52:19 AM

Latest Report: Aug 29, 2016 at 11:30 AM


Visibility: 10 mi

Pressure: 29.80 "Hg

Humidity: 42%

Dew Point: 55 °F

Location of ShenyangLocation

Past Weather in Shenyang — Graph

°F

Shenyang Temperature Yesterday

Maximum temperature yesterday: 82 °F (at 12:30 PM)
Minimum temperature yesterday: 54 °F (at 4:30 AM)
Average temperature yesterday: 70 °F

High & Low Weather Summary for the Past Weeks

 TemperatureHumidityPressure
High90 °F (Aug 14, 11:00 AM)100% (Aug 16, 1:30 AM)29.98 "Hg (Aug 16, 1:30 AM)
Low50 °F (Aug 26, 4:30 AM)23% (Aug 26, 2:30 PM)29.62 "Hg (Aug 15, 4:30 PM)
Average73 °F73%29.76 "Hg
* Reported Aug 14 10:00 AM — Aug 29 10:30 AM, Shenyang, Weather by CustomWeather, © 2016

Note: Actual official high and low records may vary slightly from our data, if they occured in-between our weather recording intervals... More about our weather records

Advertising

Shenyang Weather History for the Previous 24 Hours

Scroll right to see more
 ConditionsComfort  
Time TempWeatherWind HumidityBarometerVisibility
10:30 AM
Mon, Aug 29
79 °FSunny.17 mph45%29.83 "Hg10 mi
10:00 AM79 °FPassing clouds.13 mph48%29.83 "HgN/A
9:30 AM75 °FPassing clouds.10 mph50%29.86 "HgN/A
9:00 AM73 °FSunny.10 mph53%29.86 "Hg10 mi
8:30 AM73 °FSunny.10 mph57%29.86 "Hg10 mi
8:00 AM72 °FSunny.8 mph61%29.86 "Hg10 mi
7:30 AM68 °FSunny.8 mph69%29.86 "Hg10 mi
7:00 AM66 °FSunny.3 mph73%29.86 "Hg10 mi
6:30 AM63 °FSunny.6 mph83%29.86 "Hg10 mi
6:00 AM61 °FSunny.8 mph88%29.86 "Hg10 mi
5:30 AM61 °FSunny.3 mph83%29.83 "Hg10 mi
5:00 AM61 °FClear.1 mph83%29.83 "Hg10 mi
4:30 AM61 °FClear.3 mph83%29.83 "Hg10 mi
4:00 AM61 °FClear.6 mph83%29.83 "Hg10 mi
3:30 AM59 °FClear.6 mph88%29.83 "Hg10 mi
3:00 AM61 °FClear.6 mph83%29.83 "Hg10 mi
2:30 AM61 °FClear.6 mph83%29.80 "Hg10 mi
2:00 AM61 °FClear.6 mph83%29.80 "Hg10 mi
1:30 AM61 °FClear.8 mph83%29.80 "Hg10 mi
1:00 AM61 °FClear.8 mph83%29.80 "Hg10 mi
12:30 AM63 °FClear.6 mph77%29.80 "Hg10 mi
12:00 AM64 °FClear.6 mph78%29.80 "Hg10 mi
11:30 PM
Sun, Aug 28
64 °FClear.6 mph78%29.83 "Hg10 mi
11:00 PM66 °FClear.6 mph73%29.83 "Hg10 mi
10:30 PM68 °FClear.3 mph64%29.83 "Hg10 mi
10:00 PM68 °FPassing clouds.3 mph64%29.83 "HgN/A
9:30 PM70 °FClear.6 mph60%29.83 "Hg10 mi
9:00 PM72 °FClear.6 mph57%29.83 "Hg10 mi
8:30 PM72 °FClear.6 mph57%29.80 "Hg10 mi
8:00 PM72 °FClear.6 mph57%29.80 "Hg10 mi
7:30 PM73 °FClear.6 mph50%29.80 "Hg10 mi
7:00 PM75 °FClear.6 mph47%29.80 "Hg10 mi
6:30 PM75 °FClear.6 mph47%29.80 "Hg10 mi
6:00 PM77 °FSunny.8 mph42%29.77 "Hg10 mi
5:30 PM79 °FSunny.8 mph39%29.77 "Hg10 mi
5:00 PM81 °FPassing clouds.10 mph34%29.77 "HgN/A
4:30 PM81 °FPassing clouds.10 mph32%29.77 "HgN/A
4:00 PM81 °FPassing clouds.10 mph30%29.77 "HgN/A
3:30 PM82 °FPassing clouds.8 mph26%29.77 "HgN/A
3:00 PM82 °FPassing clouds.6 mph30%29.77 "HgN/A
2:30 PM82 °FPassing clouds.8 mph32%29.77 "HgN/A
2:00 PM82 °FPassing clouds.8 mph32%29.77 "HgN/A
1:30 PM82 °FPassing clouds.10 mph32%29.77 "HgN/A
1:00 PM82 °FPassing clouds.10 mph35%29.80 "HgN/A
12:30 PM82 °FSunny.10 mph35%29.80 "Hg10 mi
12:00 PM81 °FPassing clouds.10 mph34%29.80 "HgN/A
11:30 AM81 °FPassing clouds.6 mph39%29.80 "HgN/A
11:00 AM79 °FPassing clouds.8 mph42%29.83 "HgN/A
Weather by CustomWeather, © 2016

See weather overviewHow to use our weather pages